User: anonymous   Login
Location: Unspecified
(0.0000°N, 0.0000°E)
Time: 12:42:31
(UTC+00:00)
Language:

Optus B3 - Orbit

View from above orbital plane
View from above orbital plane
View from above satellite
View from above satellite

Ground track
Ground track

The orbit data is extracted from the following two-line orbital elements,

1 23227U 94055A   15177.66695065 -.00000079  00000-0  00000+0 0  9999
2 23227 006.2128 055.9079 0003325 036.2005 226.6656 01.00272767 76245
Epoch (UTC): 26 June 2015 16:00:24
Eccentricity: 0.0003325
inclination: 6.2128°
perigee height: 35772 km
apogee height: 35800 km
right ascension of ascending node: 55.9079°
argument of perigee: 36.2005°
revolutions per day: 1.00272767
mean anomaly at epoch: 226.6656°
orbit number at epoch: 7624

The dashed part of the orbit path shows where the satellite is in the earth's shadow,  

DLR